STARLINK-32777, 62525

Orbit data source: Space-Track

STARLINK-32777, 62525 is a payload satellite owned by SpaceX/Seattle (US) in LEO that was launched on Wed, 08 Jan 2025 UTC via an FALCON 9 launch vehicle from the Air Force Eastern Test Range (AFETR). Payload-class satellites include a variety of spacecraft equipped with specific instruments for various scientific and technological missions. These include communications satellites like Starlink; space stations such as the ISS; scientific satellites like the Hubble; Earth observation satellites from companies like Planet Labs, Umbra, and HawkEye 360; GPS; miniature CubeSats for education and research; and military/defense satellites.

Loading next visibility...
Identifier
62525, 2025-004Q
Orbit
LEO
Last TLE update
19 hours ago
Origin
Manufacturer
SpaceX/Seattle
Mission
Operational Commercial Communications
Bus & Motor
STARLINK V2M, Unknown motor
Mass
730 kg wet, ~700 kg dry
Launch date (UTC)
2025-01-08 (6 months ago)
Launch vehicle
FALCON 9
Launch site
Air Force Eastern Test Range (AFETR)
Object type
Payload
Rocket body
Debris
Shape & HBR
Box + 2 Pan, 29 m
Radar Cross Section
33.884 m², Large (>1 m²)

Expand to show TLE details & history

TLE from 19 hours ago
0 STARLINK-32777
1 62525U 25004Q   25191.29601135  .00006802  00000-0  25645-3 0  9997
2 62525  42.9995 149.1259 0001239 268.6133  91.4577 15.27581479 29389
Epoch: 2025-07-10T07:06Z
TLE epoch observation values (Epoch: 2025-07-10T07:06:15.38Z)
Latitude
-0°
Longitude
114.09748°
Altitude
482.842 km
Speed
7.626 km/s
True Right ascension
09h 56m 30s
True Declination
0° 00' 00"
Sunlit
Object was in daylight at epoch
Visualization orbit readout
Latitude
21.95692°
Longitude
-95.95056°
Altitude
483.042 km
Speed
7.627 km/s
Apparent Right ascension
22h 46m 02s
Apparent Declination
-12° 09' 45"
Sunlit
Object is in full shadow
Visualization observer readout
Local Sidereal Time
14:51:06
Azimuth
80.726° E
Elevation
-29.712°
Doppler factor
1
Orbital elements
Apogee altitude
485.84 km
Perigee altitude
484.14 km
Semi-major axis
6,863.127 km
Eccentricity
0.00012
Inclination
42.9995°
RAAN
149.1259°
Arg. of periapsis
268.6133°
True anomaly
Unknown
Mean anomaly
91.4577°
Eccentric anomaly
Unknown
Mean motion
3.81733 °/min
Orbital period
94.31 mins
BSTAR
0.00025645
Loading maneuver chart data...
Loading SW <> Apogee altitude chart data...
Loading historical data...
Loading historical data...
Loading historical data...
Loading historical data...
Loading historical data...
Loading historical data...
Loading historical data...

STARLINK-32777 Visibility forecast

Observer location: undefined°, undefined°

Span
Click to sort rows by Start time (UTC) header in descending order
Start Az.
Max El. time (UTC)
Max El. Az.
Max El.
End time (UTC)
End Az.
6 mins2025-07-11 03:52:31.321Z289.746° WNW2025-07-11 03:55:31.321Z1.781° NNE39.233°2025-07-11 03:58:31.321Z82.389° E
5 mins2025-07-11 05:32:31.321Z278.647° WNW2025-07-11 05:34:31.321Z212.625° SW41.714°2025-07-11 05:37:31.321Z124.66° SE
5 mins2025-07-12 00:07:31.321Z211.835° SW2025-07-12 00:09:31.321Z161.112° S32.575°2025-07-12 00:12:31.321Z85.675° E
5 mins2025-07-12 01:46:31.321Z271.412° WNW2025-07-12 01:48:31.321Z338.644° N42.109°2025-07-12 01:51:31.321Z68.64° E
|